Overview Statistics Trail Chart Weather Telemetry Raw packets
 

This is the latest recevied weather packets stored in our database for station/object N3LF. If no packets are shown the sender has not sent any weather packets the latest 10 day(s).

<< 1 2 3 4 5 6 >>
Time Temp. Humidity Pressure Rain* Wind** Luminosity Snow
1788618639 30.56° C 81% 1017.5 hPa 0 mm - 361 W/m² -
1788618337 30.56° C 80% 1017.5 hPa 0 mm - 345 W/m² -
1788618032 30.56° C 80% 1017.5 hPa 0 mm - 339 W/m² -
1788617727 29.44° C 85% 1017.6 hPa 0 mm - 322 W/m² -
1788617424 28.33° C 87% 1017.6 hPa 0 mm - 292 W/m² -
1788617124 28.33° C 88% 1017.6 hPa 0 mm - 300 W/m² -
1788616822 28.89° C 86% 1017.3 hPa 0 mm - 270 W/m² -
1788616518 29.44° C 84% 1017.6 hPa 0 mm - 266 W/m² -
1788616214 28.89° C 84% 1017.4 hPa 0 mm - 258 W/m² -
1788615914 28.33° C 86% 1017.4 hPa 0 mm - 256 W/m² -
1788615613 27.78° C 89% 1017.5 hPa 0 mm - 249 W/m² -
1788615308 26.67° C 93% 1017.5 hPa 0 mm - 228 W/m² -
1788615002 25.56° C 99% 1017.4 hPa 0 mm - 219 W/m² -
1788614697 25° C 99% 1017.6 hPa 0 mm - 172 W/m² -
1788614397 24.44° C 99% 1017.5 hPa 0 mm - 128 W/m² -
1788614093 23.89° C 99% 1017.5 hPa 0 mm - 113 W/m² -
1788613788 23.89° C 99% 1017.4 hPa 0 mm - 86 W/m² -
1788613487 23.89° C 99% 1017.5 hPa 0 mm - 91 W/m² -
1788613187 23.33° C 99% 1017.5 hPa 0 mm - 74 W/m² -
1788612882 23.33° C 99% 1017.5 hPa 0 mm - 51 W/m² -
1788612577 23.89° C 99% 1017.6 hPa 0 mm - 52 W/m² -
1788612274 23.33° C 99% 1017.4 hPa 0 mm - 59 W/m² -
1788611974 23.33° C 99% 1017.7 hPa 0 mm - 57 W/m² -
1788611670 23.33° C 99% 1017.5 hPa 0 mm - 56 W/m² -
1788611366 23.33° C 99% 1017.4 hPa 0 mm - 45 W/m² -

* Rain latest hour (hover to see other rain measurements)
** Current wind speed in m/s (hover to see current wind gust speed)